Tracking 18795 objects as of 22-August-2017
HD Live streaming from Space Station
objects crossing your sky now

COSMOS 2251 DEB

Track COSMOS 2251 DEB now!
10-day predictions


NORAD ID: 34447
Int'l Code: 1993-036SQ
Perigee: 625.6 km
Apogee: 658.6 km
Inclination: 74.0 °
Period: 97.4 minutes
Semi major axis: 7013 km
RCS: 0.038 m2 (small)
Launch date: June 16, 1993
Source: Commonwealth of Independent States (former USSR) (CIS)
Launch site: PLESETSK MISSILE AND SPACE COMPLEX (PKMTR)

Note: This is SATELLITE DEBRIS
Your satellite tracking list
Your tracking list is empty





NASA's NSSDC Master Catalog

Two Line Element Set (TLE):
1 34447U 93036SQ  17233.46495917 +.00005629 +00000-0 +77664-3 0  9999
2 34447 074.0258 227.9699 0023574 013.5621 144.2361 14.78214629451211
Source of the keplerian elements: AFSPC